Content
SEND FEEDBACK

Daily
Averages
Monthly
Summary
United States of America

UMATAC, GUAM


Home > North America > United States > Guam
Elevation: 58 meters     Latitude: 13 17N     Longitude: 144 40E

WEATHER
 
SELECT A DAY
Number of Records: 354,701;   Date Range: 1/1/95 - 11/26/14
 
SHARE

PRINT THIS DATA

[ ← Previous Day ]
WEATHER ALMANAC - 8 SEPTEMBER, 2013
[ Next Day → ]
[ °F ]   °C
Weather ElementAverageHighLow
Temperature26.3 °C30 °C (11:58 am)24 °C (3:06 am)
Dewpoint24.2 °C26 °C (11:09 pm)23 °C (2:53 am)
Humidity88.2 %100 % (4:59 am)72 % (12:58 pm)
Barometer1012.5 hPa1013.2 hPa (9:53 pm)1010.5 hPa (4:58 pm)
Wind Speed9.5 km/h29.6 km/h (2:53 am)
Wind Gust37 km/h (2:53 am)
Weather ElementAverage
Visibility14.3 km
Wind DirectionENE (71.7 °)

Weather ElementTotal
Precipitation17.53 mm
Cooling Degree Days8.7 (Base 18.3)
Growing Degree Days17 (Base 10)
Averaged from 70 records on 8 September, 2013
WEATHER CONDITIONS BREAKOUT
WIND DIRECTION BREAKOUT
WEATHER BY HOUR - 8 SEPTEMBER, 2013
[ °F ]   °C
Local TimeTemperatureDewpointHumidityBarometerVisibilityWind DirectionWind SpeedGust SpeedPrecipitationEventsConditions
12:39 AM27 °C25 °C89 %1012.9 hPa16.1 kmVariable1.9 km/hRainLight Rain
12:49 AM26 °C24 °C89 %1012.9 hPa4 kmSouth (180°)9.3 km/hRainLight Rain
12:54 AM26 °C24 °C89 %1012.9 hPa2.9 kmVariable3.7 km/hRainHeavy Rain
12:58 AM26 °C24 °C89 %1012.9 hPa2.4 kmWNW (290°)5.6 km/h4.83 mmRainHeavy Rain
1:03 AM26 °C24 °C89 %1012.9 hPa2.9 kmNW (310°)7.4 km/hRainLight Rain
1:08 AM26 °C25 °C94 %1012.9 hPa14.5 kmNE (50°)5.6 km/hRainLight Rain
1:13 AM26 °C25 °C94 %1012.9 hPa14.5 kmNorth (10°)5.6 km/hRainLight Rain
1:15 AM26 °C25 °C94 %1012.9 hPa16.1 kmNNE (20°)3.7 km/hMostly Cloudy
1:20 AM26 °C25 °C94 %1012.5 hPa16.1 kmCalmMostly Cloudy
1:40 AM26 °C25 °C94 %1012.5 hPa16.1 kmWest (260°)9.3 km/hMostly Cloudy
1:45 AM26 °C24 °C89 %1012.5 hPa16.1 kmWest (260°)13 km/hMostly Cloudy
1:55 AM25 °C24 °C94 %1012.2 hPa16.1 kmWest (280°)9.3 km/hOvercast
1:58 AM25 °C24 °C94 %1012.2 hPa16.1 kmWest (280°)9.3 km/h0.25 mmOvercast
2:18 AM25 °C24 °C94 %1012.5 hPa16.1 kmWNW (300°)9.3 km/hMostly Cloudy
2:28 AM25 °C24 °C94 %1012.5 hPa16.1 kmWest (270°)5.6 km/hMostly Cloudy
2:38 AM25 °C24 °C94 %1012.2 hPa16.1 kmWest (260°)7.4 km/hScattered Clouds
2:53 AM25 °C23 °C89 %1012.5 hPa16.1 kmNE (50°)29.6 km/h37 km/hMostly Cloudy
2:55 AM25 °C23 °C89 %1012.9 hPa16.1 kmNE (50°)24.1 km/h37 km/hRainLight Rain
2:58 AM25 °C23 °C89 %1012.5 hPa16.1 kmNE (40°)24.1 km/h37 km/h0.25 mmRainRain
3:03 AM25 °C23 °C89 %1012.9 hPa6.4 kmNE (40°)24.1 km/h37 km/hRainHeavy Rain
3:06 AM24 °C23 °C94 %1012.5 hPa4.8 kmNNE (20°)24.1 km/hRainHeavy Rain
3:26 AM24 °C23 °C94 %1012.2 hPa4 kmNE (40°)11.1 km/hRainHeavy Rain
3:31 AM24 °C23 °C94 %1012.2 hPa1.9 kmNNE (20°)1.9 km/hRainHeavy Rain
3:36 AM24 °C23 °C94 %1011.9 hPa2.4 kmCalmRainLight Rain
3:41 AM24 °C23 °C94 %1011.9 hPa6.4 kmENE (60°)1.9 km/hRainLight Rain
3:51 AM24 °C23 °C94 %1011.9 hPa16.1 kmSSE (150°)7.4 km/hLight Drizzle
3:58 AM24.4 °C23.4 °C94 %1011.9 hPa16.1 kmCalm11.43 mmRainLight Rain
4:34 AM25 °C24 °C94 %1012.2 hPa16.1 kmNW (320°)3.7 km/hPartly Cloudy
4:42 AM25 °C24 °C94 %1012.5 hPa16.1 kmCalmThunderstormThunderstorm
4:47 AM24 °C23 °C94 %1012.5 hPa16.1 kmCalmMostly Cloudy
4:49 AM25 °C23 °C89 %1012.5 hPa16.1 kmCalmMostly Cloudy
4:50 AM25 °C23 °C89 %1012.5 hPa16.1 kmCalmMostly Cloudy
4:51 AM25 °C23 °C89 %1012.5 hPa16.1 kmCalmMostly Cloudy
4:52 AM25 °C23 °C89 %1012.5 hPa16.1 kmCalmMostly Cloudy
4:53 AM25 °C23 °C89 %1012.9 hPa16.1 kmCalmMostly Cloudy
4:54 AM25 °C23 °C89 %1012.9 hPa16.1 kmCalmMostly Cloudy
4:58 AM24.6 °C23.4 °C93 %1012.9 hPa16.1 kmCalm0.25 mmScattered Clouds
4:59 AM24 °C24 °C100 %1012.9 hPa16.1 kmCalmScattered Clouds
5:58 AM24.7 °C23.7 °C94 %1012.5 hPa16.1 kmNorth (10°)7.4 km/hPartly Cloudy
6:18 AM25 °C24 °C94 %1012.5 hPa16.1 kmNNE (30°)7.4 km/hMostly Cloudy
6:23 AM25 °C24 °C94 %1012.2 hPa16.1 kmNorth (10°)9.3 km/hScattered Clouds
6:58 AM25.9 °C24.5 °C92 %1012.5 hPa16.1 kmENE (70°)5.6 km/hPartly Cloudy
7:58 AM27.6 °C24.7 °C84 %1012.2 hPa16.1 kmESE (120°)9.3 km/hClear
8:58 AM28.4 °C24.9 °C81 %1012.2 hPa16.1 kmESE (110°)13 km/hClear
9:58 AM29.1 °C24.6 °C77 %1012.5 hPa16.1 kmESE (120°)14.8 km/hClear
10:58 AM29.2 °C24.7 °C77 %1012.5 hPa16.1 kmESE (120°)9.3 km/hClear
11:58 AM30 °C24.8 °C73 %1012.5 hPa16.1 kmVariable7.4 km/hScattered Clouds
12:58 PM30 °C24.4 °C72 %1011.9 hPa16.1 kmESE (120°)13 km/hPartly Cloudy
1:58 PM29.4 °C24 °C73 %1011.2 hPa16.1 kmSE (130°)9.3 km/hPartly Cloudy
2:58 PM29.2 °C23.7 °C72 %1010.8 hPa16.1 kmCalmClear
3:58 PM29.6 °C25.5 °C78 %1010.8 hPa16.1 kmNorth (10°)7.4 km/hMostly Cloudy
4:58 PM29.8 °C24.9 °C75 %1010.5 hPa16.1 kmNNE (30°)11.1 km/hClear
5:58 PM28.6 °C25 °C81 %1011.2 hPa16.1 kmNorth (10°)11.1 km/hClear
6:58 PM27.2 °C24 °C83 %1011.5 hPa16.1 kmNE (40°)11.1 km/hClear
7:58 PM27.4 °C23.1 °C77 %1012.2 hPa16.1 kmNE (40°)14.8 km/hMostly Cloudy
8:58 PM27.4 °C24 °C82 %1012.9 hPa16.1 kmNNE (30°)13 km/hMostly Cloudy
9:53 PM28 °C25 °C84 %1013.2 hPa16.1 kmNNE (20°)16.7 km/hMostly Cloudy
9:58 PM27.6 °C25.1 °C86 %1013.2 hPa16.1 kmNorth (10°)16.7 km/hMostly Cloudy
10:03 PM28 °C25 °C84 %1013.2 hPa16.1 kmNNE (20°)16.7 km/hMostly Cloudy
10:28 PM28 °C25 °C84 %1013.2 hPa16.1 kmNNE (30°)13 km/hMostly Cloudy
10:33 PM28 °C25 °C84 %1013.2 hPa16.1 kmNE (40°)14.8 km/hMostly Cloudy
10:38 PM28 °C25 °C84 %1013.2 hPa16.1 kmNNE (30°)16.7 km/hOvercast
10:43 PM28 °C25 °C84 %1013.2 hPa16.1 kmNNE (30°)16.7 km/hOvercast
10:48 PM28 °C25 °C84 %1013.2 hPa16.1 kmNNE (30°)14.8 km/hMostly Cloudy
10:58 PM27.6 °C25.3 °C87 %1012.9 hPa16.1 kmNE (40°)16.7 km/hOvercast
10:59 PM28 °C25 °C84 %1012.9 hPa16.1 kmNNE (30°)18.5 km/hRainLight Rain
11:09 PM27 °C26 °C94 %1012.9 hPa16.1 kmENE (60°)18.5 km/hRainLight Rain
11:29 PM27 °C26 °C94 %1012.9 hPa16.1 kmNE (40°)22.2 km/hRainLight Rain
11:37 PM26 °C25 °C94 %1012.9 hPa16.1 kmNE (40°)18.5 km/hScattered Clouds
11:58 PM26.6 °C25.2 °C92 %1012.5 hPa16.1 kmNE (40°)14.8 km/h0.51 mmClear
Hourly data recorded from PGUA, located 0 kilometers away from Umatac, Guam







STORIES FROM OUR PARTNERS